sat.trackr.live / text

‹ back to catalog

STARLINK-3093

NORAD 49141 · 2021-082M

PAYLOAD ACTIVE UNKNOWN

§ Identity

Operator
Country
US
Launch date
2021-09-14
Launch site
AFWTR
Launch vehicle
Mass (kg)
RCS (m²)

Purposes: comms

External: N2YO · Heavens-Above · Gunter

§ Orbital elements

Epoch: 2026-09-19T23:33:04.343328Z

Period
96.11 min
Inclination
69.9987°
Eccentricity
0.0002410
Mean motion
14.98339606 rev/d
Perigee alt
570.4 km
Apogee alt
573.7 km
Semi-major
6,950.2 km
B*
1.4296e-5
RAAN
164.5888°
Arg perigee
268.7813°
Mean anomaly
91.3070°
Rev number
27,628

§ Raw data

STARLINK-30931 49141U 21082M   26262.98130027  .00000078  00000+0  14296-4 0  99902 49141  69.9987 164.5888 0002410 268.7813  91.3070 14.98339606276285

JSON: /api/v1/satellites/49141 · /tle

For live sub-satellite position, see the globe view (requires WebGL).

§ Visibility from observer

Set your observer location to see the next 7 days of passes ≥ 10°. The values pass through the URL so the page stays shareable.

No JS? Fill the form by hand. The geolocation button needs JavaScript.